When you browse on this site, cookies collect data to enhance your experience and personalize the content and advertising you see.
Visit our Privacy Policy to learn more. By continuing to use the site, you agree to this use of cookies and data.
  • In Austria
  • List of Countries
  • For 7 days
  • Water Temperature
  • Satellite Maps
  • Weather Map
  • News
  • Weather Widgets
  • user-avatar
    Login

    Hourly Weather Sapino

    Today, 20 February, Wednesday

    Time Temperature Precipitation Wind Pressure Humidity
    00:00 +1°C° 0.1 mm 4 mps 743 mmHg 90%
    01:00 +1°C° 0.1 mm 4 mps 743 mmHg 90%
    02:00 +1°C° 0.1 mm 4 mps 743 mmHg 90%
    03:00 +1°C° 0.1 mm 4 mps 742 mmHg 90%
    04:00 +1°C° 0.1 mm 4 mps 742 mmHg 90%
    05:00 +1°C° 0.1 mm 4 mps 742 mmHg 91%
    06:00 0°C° 0.1 mm 4 mps 742 mmHg 90%
    07:00 0°C° 0.1 mm 4 mps 742 mmHg 90%
    08:00 0°C° 0.1 mm 4 mps 742 mmHg 89%
    09:00 +1°C° 0.1 mm 4 mps 741 mmHg 88%
    10:00 +1°C° 0.1 mm 4 mps 741 mmHg 86%
    11:00 +1°C° 0.1 mm 4 mps 741 mmHg 84%
    12:00 +1°C° 0.3 mm 4 mps 741 mmHg 84%
    13:00 +1°C° 0.3 mm 4 mps 740 mmHg 83%
    14:00 +2°C° 0.3 mm 5 mps 740 mmHg 83%
    15:00 +1°C° 0.5 mm 5 mps 740 mmHg 84%
    16:00 +1°C° 0.5 mm 5 mps 740 mmHg 85%
    17:00 +1°C° 0.5 mm 5 mps 740 mmHg 85%
    18:00 -1°C° 0.1 mm 5 mps 740 mmHg 82%
    19:00 -2°C° 0.1 mm 5 mps 741 mmHg 79%
    20:00 -4°C° 0.1 mm 5 mps 741 mmHg 76%
    21:00 -4°C° 0.2 mm 5 mps 742 mmHg 76%
    22:00 -5°C° 0.2 mm 6 mps 742 mmHg 77%
    23:00 -5°C° 0.2 mm 6 mps 742 mmHg 77%

    Tomorrow, 21 February, Thursday

    Time Temperature Precipitation Wind Pressure Humidity
    00:00 -5°C° 0.2 mm 6 mps 743 mmHg 76%
    01:00 -5°C° 0.2 mm 6 mps 744 mmHg 76%
    02:00 -6°C° 0.2 mm 6 mps 744 mmHg 75%
    03:00 -6°C° 0.1 mm 6 mps 745 mmHg 74%
    04:00 -6°C° 0.1 mm 6 mps 745 mmHg 73%
    05:00 -7°C° 0.1 mm 7 mps 745 mmHg 71%
    06:00 -8°C° 0.1 mm 7 mps 746 mmHg 71%
    07:00 -8°C° 0.1 mm 7 mps 747 mmHg 70%
    08:00 -8°C° 0.1 mm 7 mps 748 mmHg 69%
    09:00 -8°C° 0.1 mm 7 mps 749 mmHg 68%
    10:00 -8°C° 0.1 mm 7 mps 750 mmHg 67%
    11:00 -8°C° 0.1 mm 6 mps 751 mmHg 66%
    12:00 -8°C° 0.1 mm 6 mps 751 mmHg 65%
    13:00 -8°C° 0.1 mm 6 mps 752 mmHg 63%
    14:00 -8°C° 0.1 mm 6 mps 753 mmHg 62%
    15:00 -9°C° 0 mm 6 mps 753 mmHg 63%
    16:00 -9°C° 0 mm 6 mps 754 mmHg 64%
    17:00 -10°C° 0 mm 5 mps 755 mmHg 65%
    18:00 -10°C° 0 mm 5 mps 755 mmHg 65%
    19:00 -11°C° 0 mm 5 mps 756 mmHg 65%
    20:00 -11°C° 0 mm 5 mps 757 mmHg 66%
    21:00 -11°C° 0 mm 5 mps 757 mmHg 66%
    22:00 -12°C° 0 mm 5 mps 758 mmHg 65%
    23:00 -12°C° 0 mm 5 mps 759 mmHg 65%

    Day after tomorrow, 22 February, Friday

    Time Temperature Precipitation Wind Pressure Humidity
    00:00 -12°C° 0 mm 5 mps 759 mmHg 66%
    01:00 -12°C° 0 mm 5 mps 760 mmHg 67%
    02:00 -12°C° 0 mm 5 mps 761 mmHg 68%
    03:00 -13°C° 0 mm 5 mps 761 mmHg 69%
    04:00 -13°C° 0 mm 5 mps 761 mmHg 69%
    05:00 -13°C° 0 mm 5 mps 762 mmHg 70%
    06:00 -13°C° 0 mm 5 mps 763 mmHg 70%
    07:00 -13°C° 0 mm 5 mps 763 mmHg 70%
    08:00 -12°C° 0 mm 5 mps 764 mmHg 70%
    09:00 -12°C° 0 mm 5 mps 764 mmHg 66%
    10:00 -11°C° 0 mm 6 mps 764 mmHg 63%
    11:00 -10°C° 0 mm 6 mps 764 mmHg 59%
    12:00 -10°C° 0 mm 6 mps 764 mmHg 59%
    13:00 -10°C° 0 mm 6 mps 765 mmHg 59%
    14:00 -9°C° 0 mm 6 mps 765 mmHg 59%
    15:00 -10°C° 0 mm 6 mps 765 mmHg 61%
    16:00 -10°C° 0 mm 6 mps 765 mmHg 62%
    17:00 -10°C° 0 mm 5 mps 766 mmHg 64%
    18:00 -11°C° 0 mm 5 mps 766 mmHg 67%
    19:00 -11°C° 0 mm 5 mps 767 mmHg 69%
    20:00 -11°C° 0 mm 5 mps 767 mmHg 72%
    21:00 -12°C° 0 mm 5 mps 768 mmHg 72%
    22:00 -12°C° 0 mm 5 mps 768 mmHg 72%
    23:00 -11°C° 0 mm 4 mps 768 mmHg 72%

    23 February, Saturday

    Time Temperature Precipitation Wind Pressure Humidity
    00:00 -11°C° 0 mm 4 mps 768 mmHg 74%
    01:00 -12°C° 0 mm 4 mps 769 mmHg 76%
    02:00 -12°C° 0 mm 3 mps 769 mmHg 78%
    03:00 -12°C° 0 mm 3 mps 769 mmHg 80%
    04:00 -13°C° 0 mm 3 mps 769 mmHg 83%
    05:00 -12°C° 0 mm 2 mps 769 mmHg 85%
    06:00 -12°C° 0 mm 2 mps 769 mmHg 85%
    07:00 -12°C° 0 mm 2 mps 769 mmHg 86%
    08:00 -12°C° 0 mm 2 mps 769 mmHg 86%
    09:00 -10°C° 0 mm 2 mps 769 mmHg 79%
    10:00 -8°C° 0 mm 1 mps 769 mmHg 72%
    11:00 -7°C° 0 mm 1 mps 769 mmHg 65%
    12:00 -7°C° 0 mm 1 mps 768 mmHg 63%
    13:00 -6°C° 0 mm 1 mps 768 mmHg 60%
    14:00 -7°C° 0 mm 2 mps 767 mmHg 57%
    15:00 -6°C° 0 mm 1 mps 767 mmHg 60%
    16:00 -6°C° 0 mm 1 mps 767 mmHg 63%
    17:00 -4°C° 0 mm 1 mps 766 mmHg 66%
    18:00 -4°C° 0 mm 1 mps 766 mmHg 69%
    19:00 -4°C° 0 mm 1 mps 766 mmHg 71%
    20:00 -7°C° 0 mm 2 mps 765 mmHg 74%
    21:00 -7°C° 0.2 mm 2 mps 765 mmHg 79%
    22:00 -7°C° 0.2 mm 2 mps 765 mmHg 84%
    23:00 -7°C° 0.2 mm 2 mps 765 mmHg 89%

    24 February, Sunday

    Time Temperature Precipitation Wind Pressure Humidity
    00:00 -7°C° 0 mm 2 mps 765 mmHg 90%
    01:00 -6°C° 0 mm 1 mps 765 mmHg 90%
    02:00 -6°C° 0 mm 1 mps 765 mmHg 91%
    03:00 -6°C° 0 mm 1 mps 766 mmHg 92%
    04:00 -6°C° 0 mm 1 mps 766 mmHg 93%
    05:00 -4°C° 0 mm 1 mps 766 mmHg 93%
    06:00 -4°C° 0 mm 1 mps 766 mmHg 93%
    07:00 -5°C° 0 mm 0 mps 767 mmHg 92%
    08:00 -5°C° 0 mm 0 mps 767 mmHg 92%
    09:00 -4°C° 0 mm 0 mps 768 mmHg 88%
    10:00 -3°C° 0 mm 0 mps 768 mmHg 84%
    11:00 -2°C° 0 mm 0 mps 768 mmHg 80%
    12:00 -1°C° 0 mm 1 mps 768 mmHg 79%
    13:00 0°C° 0 mm 1 mps 768 mmHg 77%
    14:00 0°C° 0 mm 1 mps 768 mmHg 76%
    15:00 0°C° 0 mm 1 mps 768 mmHg 79%
    16:00 0°C° 0 mm 1 mps 768 mmHg 83%
    17:00 -1°C° 0 mm 1 mps 768 mmHg 86%
    18:00 -1°C° 0 mm 1 mps 768 mmHg 88%
    19:00 -1°C° 0 mm 1 mps 768 mmHg 89%
    20:00 -1°C° 0 mm 1 mps 768 mmHg 91%
    21:00 -2°C° 0 mm 1 mps 768 mmHg 92%
    22:00 -2°C° 0 mm 1 mps 768 mmHg 93%
    23:00 -2°C° 0 mm 1 mps 767 mmHg 94%

    25 February, Monday

    Time Temperature Precipitation Wind Pressure Humidity
    00:00 -4°C° 0 mm 2 mps 767 mmHg 94%
    01:00 -4°C° 0 mm 2 mps 766 mmHg 95%
    02:00 -5°C° 0 mm 2 mps 766 mmHg 95%
    03:00 -4°C° 0 mm 2 mps 765 mmHg 95%
    04:00 -4°C° 0 mm 2 mps 765 mmHg 95%
    05:00 -3°C° 0 mm 2 mps 764 mmHg 95%
    06:00 -3°C° 0.1 mm 2 mps 764 mmHg 96%
    07:00 -2°C° 0.1 mm 2 mps 764 mmHg 96%
    08:00 -2°C° 0.1 mm 2 mps 763 mmHg 96%
    09:00 -1°C° 0.1 mm 2 mps 763 mmHg 94%
    10:00 0°C° 0.1 mm 3 mps 763 mmHg 91%
    11:00 0°C° 0.1 mm 3 mps 763 mmHg 89%
    12:00 +1°C° 0 mm 3 mps 763 mmHg 84%
    13:00 +1°C° 0 mm 3 mps 763 mmHg 79%
    14:00 +2°C° 0 mm 3 mps 762 mmHg 75%
    15:00 +1°C° 0 mm 3 mps 762 mmHg 78%
    16:00 0°C° 0 mm 3 mps 762 mmHg 81%
    17:00 -1°C° 0 mm 2 mps 762 mmHg 83%
    18:00 -1°C° 0 mm 2 mps 762 mmHg 85%
    19:00 -1°C° 0 mm 3 mps 762 mmHg 86%
    20:00 -2°C° 0 mm 3 mps 762 mmHg 87%
    21:00 -1°C° 0 mm 3 mps 761 mmHg 88%
    22:00 -1°C° 0 mm 3 mps 761 mmHg 89%
    23:00 -1°C° 0 mm 3 mps 761 mmHg 90%
    Show more